Location: *
(41.3833°S, 177.8333°W)
Time: 01:34:02
(UTC+00:00)

Cosmos 2237 Rocket - Pass Details

Date: 01 April 2020
Orbit: 833 x 851 km, 71.0° (Epoch: 05 June)

Event Time Altitude Azimuth Distance (km) Brightness Sun altitude
Rises 17:34:41 0° 350° (N) 3,409 5.3 -7.1°
Reaches altitude 10° 17:37:09 10° 353° (N) 2,481 4.6 -6.6°
Maximum altitude 17:42:44 59° 71° (ENE) 990 3.0 -5.6°
Drops below altitude 10° 17:48:23 10° 149° (SSE) 2,507 5.1 -4.5°
Sets 17:50:53 0° 152° (SSE) 3,447 5.7 -4.0°
